When you browse on this site, cookies collect data to enhance your experience and personalize the content and advertising you see.
Visit our Privacy Policy to learn more. By continuing to use the site, you agree to this use of cookies and data.
  • în România
  • Lista ţărilor
  • Pe 7 zile
  • Temperatura apei
  • Hartă satelitară
  • Meteo pe hartă
  • Widget-uri
  • user-avatar
    Intrare

    Meteo pe oră la Kislyakovo

    Astăzi, 20 Ianuarie, Duminică

    Timp Temperatura Precipitaţii Vânt Presiune Umiditate
    00:00 -9°C° 0 mm 3 m/s 739 mmHg 90%
    01:00 -9°C° 0 mm 4 m/s 738 mmHg 89%
    02:00 -8°C° 0 mm 4 m/s 738 mmHg 87%
    03:00 -8°C° 0 mm 4 m/s 738 mmHg 87%
    04:00 -8°C° 0 mm 5 m/s 737 mmHg 87%
    05:00 -8°C° 0 mm 5 m/s 737 mmHg 86%
    06:00 -8°C° 0.1 mm 5 m/s 736 mmHg 86%
    07:00 -9°C° 0.1 mm 6 m/s 736 mmHg 86%
    08:00 -9°C° 0.1 mm 6 m/s 735 mmHg 85%
    09:00 -8°C° 0.1 mm 6 m/s 735 mmHg 85%
    10:00 -6°C° 0.1 mm 6 m/s 735 mmHg 84%
    11:00 -7°C° 0.1 mm 7 m/s 734 mmHg 83%
    12:00 -6°C° 0.3 mm 6 m/s 734 mmHg 83%
    13:00 -5°C° 0.3 mm 6 m/s 734 mmHg 84%
    14:00 -5°C° 0.3 mm 5 m/s 733 mmHg 85%
    15:00 -6°C° 0.1 mm 5 m/s 733 mmHg 84%
    16:00 -7°C° 0.1 mm 5 m/s 733 mmHg 83%
    17:00 -8°C° 0.1 mm 5 m/s 733 mmHg 82%
    18:00 -8°C° 0 mm 5 m/s 734 mmHg 83%
    19:00 -10°C° 0 mm 5 m/s 734 mmHg 84%
    20:00 -10°C° 0 mm 5 m/s 734 mmHg 85%
    21:00 -10°C° 0 mm 4 m/s 734 mmHg 86%
    22:00 -10°C° 0 mm 4 m/s 734 mmHg 87%
    23:00 -11°C° 0 mm 4 m/s 735 mmHg 89%

    Mâine, 21 Ianuarie, Luni

    Timp Temperatura Precipitaţii Vânt Presiune Umiditate
    00:00 -10°C° 0 mm 3 m/s 735 mmHg 89%
    01:00 -12°C° 0 mm 3 m/s 735 mmHg 90%
    02:00 -12°C° 0 mm 3 m/s 736 mmHg 91%
    03:00 -12°C° 0 mm 2 m/s 736 mmHg 92%
    04:00 -12°C° 0 mm 2 m/s 736 mmHg 93%
    05:00 -13°C° 0 mm 2 m/s 736 mmHg 94%
    06:00 -14°C° 0 mm 2 m/s 736 mmHg 95%
    07:00 -14°C° 0 mm 2 m/s 736 mmHg 95%
    08:00 -15°C° 0 mm 2 m/s 737 mmHg 96%
    09:00 -15°C° 0.1 mm 3 m/s 737 mmHg 92%
    10:00 -15°C° 0.1 mm 3 m/s 737 mmHg 89%
    11:00 -15°C° 0.1 mm 4 m/s 737 mmHg 86%
    12:00 -14°C° 0.1 mm 3 m/s 738 mmHg 85%
    13:00 -14°C° 0.1 mm 3 m/s 738 mmHg 85%
    14:00 -14°C° 0.1 mm 3 m/s 738 mmHg 85%
    15:00 -16°C° 0 mm 3 m/s 738 mmHg 87%
    16:00 -17°C° 0 mm 3 m/s 739 mmHg 90%
    17:00 -17°C° 0 mm 2 m/s 739 mmHg 92%
    18:00 -18°C° 0 mm 2 m/s 739 mmHg 93%
    19:00 -19°C° 0 mm 2 m/s 739 mmHg 94%
    20:00 -22°C° 0 mm 3 m/s 740 mmHg 95%
    21:00 -21°C° 0 mm 2 m/s 740 mmHg 96%
    22:00 -21°C° 0 mm 2 m/s 740 mmHg 96%
    23:00 -23°C° 0 mm 2 m/s 741 mmHg 97%

    Poimâine, 22 Ianuarie, Marţi

    Timp Temperatura Precipitaţii Vânt Presiune Umiditate
    00:00 -23°C° 0 mm 2 m/s 741 mmHg 97%
    01:00 -23°C° 0 mm 2 m/s 741 mmHg 97%
    02:00 -23°C° 0 mm 2 m/s 741 mmHg 97%
    03:00 -23°C° 0 mm 2 m/s 742 mmHg 97%
    04:00 -23°C° 0 mm 2 m/s 742 mmHg 97%
    05:00 -23°C° 0 mm 2 m/s 742 mmHg 97%
    06:00 -23°C° 0 mm 2 m/s 742 mmHg 97%
    07:00 -23°C° 0 mm 2 m/s 742 mmHg 97%
    08:00 -23°C° 0 mm 2 m/s 743 mmHg 98%
    09:00 -21°C° 0 mm 2 m/s 743 mmHg 96%
    10:00 -20°C° 0 mm 2 m/s 743 mmHg 95%
    11:00 -16°C° 0 mm 1 m/s 744 mmHg 94%
    12:00 -16°C° 0 mm 1 m/s 744 mmHg 94%
    13:00 -15°C° 0 mm 1 m/s 744 mmHg 94%
    14:00 -14°C° 0 mm 1 m/s 744 mmHg 94%
    15:00 -16°C° 0 mm 1 m/s 744 mmHg 94%
    16:00 -17°C° 0 mm 1 m/s 744 mmHg 95%
    17:00 -18°C° 0 mm 1 m/s 744 mmHg 95%
    18:00 -19°C° 0 mm 1 m/s 744 mmHg 95%
    19:00 -19°C° 0 mm 1 m/s 744 mmHg 95%
    20:00 -20°C° 0 mm 1 m/s 744 mmHg 94%
    21:00 -20°C° 0 mm 1 m/s 744 mmHg 94%
    22:00 -20°C° 0 mm 1 m/s 744 mmHg 93%
    23:00 -20°C° 0 mm 1 m/s 744 mmHg 92%

    23 Ianuarie, Miercuri

    Timp Temperatura Precipitaţii Vânt Presiune Umiditate
    00:00 -20°C° 0 mm 1 m/s 744 mmHg 93%
    01:00 -24°C° 0 mm 2 m/s 744 mmHg 93%
    02:00 -24°C° 0 mm 2 m/s 744 mmHg 94%
    03:00 -24°C° 0 mm 2 m/s 744 mmHg 95%
    04:00 -23°C° 0 mm 2 m/s 744 mmHg 97%
    05:00 -23°C° 0 mm 2 m/s 744 mmHg 99%
    06:00 -23°C° 0 mm 2 m/s 744 mmHg 99%
    07:00 -21°C° 0 mm 2 m/s 744 mmHg 98%
    08:00 -21°C° 0 mm 2 m/s 744 mmHg 98%
    09:00 -19°C° 0 mm 2 m/s 744 mmHg 97%
    10:00 -18°C° 0 mm 3 m/s 744 mmHg 95%
    11:00 -16°C° 0 mm 3 m/s 744 mmHg 93%
    12:00 -15°C° 0 mm 3 m/s 743 mmHg 92%
    13:00 -14°C° 0 mm 3 m/s 743 mmHg 91%
    14:00 -14°C° 0 mm 3 m/s 743 mmHg 89%
    15:00 -13°C° 0 mm 3 m/s 743 mmHg 90%
    16:00 -13°C° 0 mm 3 m/s 743 mmHg 91%
    17:00 -10°C° 0 mm 2 m/s 743 mmHg 92%
    18:00 -9°C° 0 mm 2 m/s 743 mmHg 92%
    19:00 -10°C° 0 mm 3 m/s 743 mmHg 91%
    20:00 -9°C° 0 mm 3 m/s 743 mmHg 91%
    21:00 -9°C° 0 mm 3 m/s 743 mmHg 90%
    22:00 -9°C° 0 mm 3 m/s 743 mmHg 90%
    23:00 -10°C° 0 mm 4 m/s 743 mmHg 90%

    24 Ianuarie, Joi

    Timp Temperatura Precipitaţii Vânt Presiune Umiditate
    00:00 -11°C° 0 mm 4 m/s 744 mmHg 90%
    01:00 -12°C° 0 mm 3 m/s 744 mmHg 91%
    02:00 -13°C° 0 mm 3 m/s 744 mmHg 92%
    03:00 -14°C° 0 mm 3 m/s 744 mmHg 93%
    04:00 -14°C° 0 mm 3 m/s 744 mmHg 94%
    05:00 -14°C° 0 mm 3 m/s 744 mmHg 94%
    06:00 -14°C° 0 mm 2 m/s 744 mmHg 93%
    07:00 -15°C° 0 mm 2 m/s 744 mmHg 93%
    08:00 -15°C° 0 mm 2 m/s 744 mmHg 92%
    09:00 -15°C° 0 mm 2 m/s 745 mmHg 90%
    10:00 -14°C° 0 mm 2 m/s 745 mmHg 88%
    11:00 -11°C° 0 mm 1 m/s 745 mmHg 86%
    12:00 -10°C° 0 mm 1 m/s 745 mmHg 87%
    13:00 -10°C° 0 mm 1 m/s 745 mmHg 88%
    14:00 -10°C° 0 mm 1 m/s 745 mmHg 89%
    15:00 -11°C° 0 mm 1 m/s 745 mmHg 88%
    16:00 -12°C° 0 mm 1 m/s 745 mmHg 88%
    17:00 -13°C° 0 mm 1 m/s 745 mmHg 88%
    18:00 -14°C° 0 mm 1 m/s 745 mmHg 87%
    19:00 -14°C° 0 mm 1 m/s 745 mmHg 87%
    20:00 -15°C° 0 mm 1 m/s 745 mmHg 86%
    21:00 -15°C° 0 mm 1 m/s 745 mmHg 87%
    22:00 -16°C° 0 mm 1 m/s 745 mmHg 87%
    23:00 -16°C° 0 mm 1 m/s 745 mmHg 87%

    25 Ianuarie, Vineri

    Timp Temperatura Precipitaţii Vânt Presiune Umiditate
    00:00 -16°C° 0 mm 1 m/s 745 mmHg 87%
    01:00 -16°C° 0 mm 1 m/s 745 mmHg 88%
    02:00 -18°C° 0 mm 2 m/s 746 mmHg 88%
    03:00 -17°C° 0 mm 2 m/s 745 mmHg 88%
    04:00 -17°C° 0 mm 2 m/s 745 mmHg 88%
    05:00 -16°C° 0 mm 2 m/s 745 mmHg 88%
    06:00 -17°C° 0 mm 2 m/s 745 mmHg 88%
    07:00 -17°C° 0 mm 2 m/s 745 mmHg 88%
    08:00 -18°C° 0 mm 3 m/s 745 mmHg 88%
    09:00 -18°C° 0 mm 3 m/s 745 mmHg 88%
    10:00 -17°C° 0 mm 3 m/s 745 mmHg 87%
    11:00 -17°C° 0 mm 3 m/s 745 mmHg 87%
    12:00 -17°C° 0 mm 3 m/s 744 mmHg 87%
    13:00 -16°C° 0 mm 3 m/s 744 mmHg 88%
    14:00 -16°C° 0 mm 3 m/s 743 mmHg 88%
    15:00 -16°C° 0 mm 3 m/s 743 mmHg 90%
    16:00 -17°C° 0 mm 3 m/s 743 mmHg 91%
    17:00 -17°C° 0 mm 3 m/s 743 mmHg 92%
    18:00 -17°C° 0 mm 3 m/s 743 mmHg 93%
    19:00 -17°C° 0 mm 3 m/s 742 mmHg 93%
    20:00 -17°C° 0 mm 3 m/s 742 mmHg 94%
    21:00 -17°C° 0.1 mm 3 m/s 742 mmHg 94%
    22:00 -16°C° 0.1 mm 2 m/s 741 mmHg 95%
    23:00 -16°C° 0.1 mm 2 m/s 741 mmHg 95%
    Arată mai mult